Temp
9 9 9 9 9 10 10 10 10 10 11 11 11 11 11 11 12 12 11 17 15 15 16 17 16 17 19 21 22 24 24 25 26 28 29 31 32 33 31 30 30 31 31 30 27
10 10 10 10 10 10 10 10 10 10 10 10 11 11 11 11 11 11 18 17 16 15 16 16 18 18 20 21 22 25 24 24 27 29 30 31 31 32 31 30 30 31 30 30 29
11 11 11 11 11 10 10 10 10 10 10 10 10 10 11 11 9 15 18 18 16 16 15 16 19 20 21 22 23 24 24 26 27 28 29 30 30 30 30 29 30 30 30 30 29
10 10 11 11 11 11 11 11 10 10 11 10 10 10 10 9 15 17 17 17 17 15 14 17 20 21 22 23 24 24 25 25 26 27 28 28 28 28 28 29 29 30 30 30 29
10 10 10 10 10 10 10 10 10 10 10 10 10 10 8 8 12 15 15 17 17 15 15 17 20 22 22 24 24 25 26 26 26 26 27 27 27 27 27 27 28 28 28 29 28
9 8 9 9 9 10 10 11 11 10 10 9 8 5 5 9 16 16 15 16 17 15 16 18 20 22 23 24 25 25 26 26 26 26 26 26 26 26 26 26 27 27 27 27 28
8 8 9 9 9 10 10 10 11 11 10 10 8 6 6 11 16 17 16 15 15 15 17 19 21 22 23 24 24 25 25 26 26 26 26 26 25 26 26 26 26 26 26 26 26
7 7 7 7 8 8 8 10 11 11 11 10 6 6 6 16 15 16 17 17 17 17 18 20 21 22 22 23 24 24 25 24 26 26 26 26 24 27 27 26 26 26 26 26 26
7 7 6 6 7 8 9 10 10 10 9 9 6 6 10 15 15 15 16 17 17 18 19 20 20 21 21 22 22 23 22 23 24 27 27 26 24 27 27 27 27 26 26 26 25
8 8 9 10 10 9 10 11 11 7 6 5 6 7 9 15 17 16 16 18 18 18 19 19 19 20 21 21 20 22 22 23 24 26 28 26 25 26 27 27 27 27 26 26 26
8 8 8 9 9 9 9 8 9 7 6 10 12 11 17 18 19 17 17 17 18 19 18 19 19 19 21 22 23 24 24 24 25 26 27 26 26 27 27 27 27 27 26 26 26
8 7 7 9 9 9 8 5 12 13 14 12 12 14 14 16 19 18 17 18 18 18 19 20 18 21 22 23 23 23 24 25 26 27 26 26 25 26 27 27 27 27 26 26 25
7 7 6 8 9 10 8 9 11 12 13 14 15 16 15 16 18 19 17 18 19 18 19 19 21 22 22 22 23 23 23 24 25 26 27 26 24 25 27 27 27 27 26 26 25
7 7 6 4 9 8 10 12 13 13 13 16 18 18 16 17 18 19 18 18 19 19 20 20 22 22 22 22 23 22 25 25 25 24 23 25 23 25 26 27 27 27 26 26 26
7 7 6 5 3 5 9 9 11 12 11 20 22 21 19 19 19 19 19 18 19 20 20 20 21 22 22 22 24 23 25 24 24 24 24 24 23 25 27 26 26 27 26 26 26
7 7 7 7 6 7 8 9 11 12 12 19 22 21 20 21 20 20 19 19 19 20 21 21 23 23 23 24 25 25 24 24 24 23 21 23 23 25 25 27 27 27 27 26 26
7 8 8 7 7 9 10 11 11 11 18 18 20 21 18 20 21 20 19 18 19 18 19 21 21 23 24 23 24 24 22 21 20 21 21 24 23 25 25 26 27 27 27 26 26
6 8 9 8 7 8 9 11 10 14 16 18 19 20 16 13 10 12 16 18 19 19 19 19 19 22 24 23 23 23 22 21 19 20 22 24 23 25 26 27 27 27 27 26 25
6 7 7 9 11 10 11 10 12 14 16 17 18 18 19 16 13 9 10 15 19 20 18 19 20 23 23 24 24 22 22 24 22 22 20 23 24 23 26 26 26 26 26 25 24
4 5 9 11 10 10 10 9 12 15 16 16 15 17 17 17 12 10 11 12 17 20 21 20 18 22 23 24 24 24 24 21 22 19 19 22 23 21 23 24 25 25 25 24 24
5 8 11 10 9 8 8 11 13 13 12 10 12 16 17 15 12 10 11 14 12 12 21 20 18 16 19 21 21 22 22 23 22 22 19 18 18 17 20 20 17 25 24 23 23
3 8 11 10 9 9 10 8 6 9 12 11 12 16 16 14 10 11 12 13 13 13 14 20 18 13 17 21 23 23 22 21 19 19 22 20 17 14 17 20 18 18 24 23 21
2 6 8 8 6 7 6 10 12 11 9 11 12 14 13 13 11 10 13 14 14 14 15 17 17 14 14 18 21 22 23 23 22 21 21 19 13 15 20 18 15 14 16 21 21
2 7 6 9 6 7 7 10 10 9 10 12 11 13 13 12 9 10 13 12 12 13 13 12 16 14 14 18 20 21 23 23 23 19 19 19 18 19 20 20 19 15 17 15 17
3 5 4 6 7 9 9 10 8 9 9 8 9 8 7 10 9 10 14 12 11 11 11 13 15 16 11 15 16 21 22 21 18 19 17 18 18 19 18 16 18 17 16 15 13
2 3 3 3 6 8 9 6 6 9 8 8 7 7 7 9 11 9 11 12 11 12 9 14 16 17 15 14 13 20 22 19 16 17 17 18 14 17 15 14 14 17 17 18 17
2 2 2 3 7 8 6 6 7 9 8 9 7 7 8 7 7 8 9 9 11 12 13 16 17 17 13 14 15 18 21 20 19 20 19 20 18 19 15 14 13 19 19 18 16
Height
1517 1514 1512 1509 1506 1504 1501 1499 1496 1494 1491 1489 1487 1484 1481 1478 1475 1473 1465 1468 1472 1474 1477 1479 1480 1481 1485 1484 1483 1484 1480 1473 1466 1460 1454 1447 1443 1440 1444 1452 1456 1454 1458 1463 1463
1515 1512 1509 1506 1503 1501 1498 1495 1493 1491 1488 1486 1483 1481 1479 1476 1471 1462 1457 1462 1466 1469 1472 1474 1476 1479 1479 1478 1478 1474 1471 1466 1459 1454 1449 1445 1443 1441 1443 1450 1454 1453 1455 1459 1462
1512 1509 1507 1504 1501 1498 1495 1492 1489 1487 1484 1482 1480 1478 1477 1475 1470 1455 1446 1453 1458 1464 1468 1473 1474 1474 1475 1472 1469 1466 1460 1459 1457 1454 1448 1444 1443 1443 1443 1450 1451 1453 1457 1457 1458
1512 1508 1505 1502 1499 1496 1493 1490 1487 1484 1480 1478 1477 1475 1473 1474 1465 1450 1450 1451 1454 1460 1464 1468 1468 1466 1467 1464 1463 1462 1458 1460 1457 1451 1449 1447 1449 1448 1449 1451 1452 1452 1453 1453 1454
1510 1506 1502 1499 1495 1492 1489 1486 1484 1480 1478 1475 1472 1470 1469 1469 1447 1449 1448 1450 1451 1453 1457 1460 1461 1460 1458 1459 1458 1452 1452 1453 1453 1451 1449 1451 1451 1453 1453 1454 1454 1452 1451 1451 1455
1506 1502 1499 1495 1492 1488 1485 1482 1479 1476 1472 1470 1468 1467 1467 1458 1440 1444 1447 1445 1446 1447 1452 1456 1455 1455 1454 1453 1451 1448 1448 1447 1449 1447 1448 1449 1450 1452 1452 1454 1453 1453 1452 1452 1452
1504 1500 1496 1492 1488 1483 1480 1477 1474 1471 1467 1465 1464 1465 1462 1435 1438 1442 1443 1442 1444 1445 1448 1451 1452 1451 1451 1446 1447 1444 1443 1442 1440 1444 1442 1445 1445 1443 1448 1449 1449 1451 1451 1451 1451
1501 1497 1493 1488 1485 1480 1476 1471 1469 1464 1462 1460 1460 1462 1445 1431 1433 1431 1437 1440 1442 1445 1447 1447 1449 1448 1448 1447 1444 1441 1441 1443 1435 1437 1438 1442 1442 1437 1439 1440 1442 1444 1446 1448 1450
1498 1494 1490 1485 1480 1476 1471 1466 1463 1458 1455 1454 1455 1460 1439 1426 1422 1424 1429 1434 1438 1441 1444 1446 1446 1447 1448 1445 1445 1437 1443 1440 1437 1426 1428 1431 1437 1432 1433 1432 1433 1437 1440 1442 1446
1494 1490 1485 1481 1476 1472 1465 1460 1456 1452 1453 1453 1453 1458 1428 1419 1418 1420 1424 1429 1432 1437 1440 1443 1444 1442 1441 1439 1443 1436 1439 1432 1427 1415 1409 1421 1426 1427 1426 1426 1426 1430 1434 1437 1439
1490 1485 1481 1476 1471 1467 1460 1454 1456 1451 1447 1439 1434 1424 1416 1413 1414 1416 1418 1423 1428 1430 1431 1435 1438 1429 1431 1430 1427 1422 1420 1422 1417 1408 1409 1419 1422 1419 1419 1422 1422 1423 1428 1432 1434
1486 1481 1476 1472 1467 1463 1457 1456 1450 1449 1427 1422 1421 1416 1414 1410 1409 1410 1416 1418 1419 1421 1426 1427 1423 1422 1423 1422 1423 1421 1418 1409 1402 1400 1408 1412 1419 1415 1414 1413 1415 1417 1421 1426 1431
1483 1477 1472 1466 1461 1457 1455 1452 1447 1443 1432 1406 1405 1394 1399 1408 1401 1401 1409 1409 1408 1415 1412 1413 1410 1416 1414 1416 1418 1417 1417 1410 1406 1400 1403 1411 1421 1415 1408 1407 1409 1414 1418 1420 1424
1478 1472 1468 1462 1460 1455 1450 1448 1446 1442 1427 1386 1371 1363 1386 1394 1389 1395 1396 1405 1403 1403 1405 1406 1402 1402 1409 1407 1408 1414 1405 1405 1406 1412 1423 1408 1430 1403 1398 1400 1403 1409 1415 1417 1418
1474 1469 1464 1459 1454 1448 1445 1443 1444 1444 1433 1370 1355 1352 1367 1376 1378 1382 1389 1397 1395 1394 1401 1395 1397 1396 1399 1402 1399 1403 1399 1407 1407 1411 1415 1413 1421 1398 1386 1396 1399 1404 1410 1413 1415
1470 1464 1458 1453 1450 1441 1441 1443 1445 1435 1413 1369 1354 1358 1362 1361 1366 1372 1380 1389 1395 1391 1389 1389 1388 1387 1386 1390 1391 1396 1401 1402 1408 1413 1428 1417 1417 1405 1394 1389 1390 1395 1404 1409 1411
1463 1456 1451 1445 1438 1440 1441 1438 1438 1421 1383 1365 1358 1352 1362 1356 1352 1365 1375 1381 1381 1392 1386 1383 1382 1380 1381 1387 1388 1395 1405 1421 1429 1425 1424 1405 1412 1399 1391 1392 1387 1390 1398 1405 1410
1457 1449 1440 1437 1434 1434 1438 1437 1422 1394 1384 1375 1360 1357 1365 1381 1388 1388 1378 1372 1375 1377 1384 1384 1389 1373 1372 1379 1387 1392 1399 1411 1427 1425 1415 1396 1406 1392 1385 1389 1393 1394 1395 1403 1410
1450 1442 1431 1426 1428 1430 1433 1423 1405 1394 1385 1378 1368 1361 1355 1364 1374 1396 1393 1373 1368 1368 1377 1377 1376 1367 1371 1373 1378 1389 1396 1391 1401 1399 1424 1397 1391 1391 1388 1388 1395 1398 1399 1404 1411
1448 1438 1427 1420 1425 1428 1425 1413 1402 1395 1386 1378 1372 1362 1362 1358 1380 1390 1382 1376 1362 1363 1364 1369 1383 1367 1371 1373 1373 1377 1382 1403 1396 1421 1429 1405 1397 1415 1399 1394 1396 1400 1403 1406 1412
1448 1438 1423 1424 1424 1425 1419 1404 1395 1390 1395 1395 1380 1362 1356 1365 1381 1385 1377 1369 1379 1374 1358 1365 1378 1394 1383 1373 1378 1381 1385 1385 1389 1393 1417 1426 1422 1415 1409 1407 1415 1397 1402 1407 1413
1452 1440 1423 1424 1423 1418 1410 1409 1410 1398 1387 1384 1378 1360 1355 1361 1378 1383 1368 1373 1367 1374 1366 1359 1376 1403 1389 1371 1367 1370 1376 1387 1407 1406 1391 1407 1424 1416 1413 1415 1411 1404 1400 1408 1416
1452 1435 1427 1423 1421 1418 1418 1405 1393 1388 1387 1380 1374 1366 1366 1366 1375 1379 1371 1367 1372 1374 1370 1369 1372 1396 1401 1383 1368 1367 1367 1372 1384 1389 1393 1412 1441 1425 1416 1415 1413 1424 1423 1404 1422
1455 1438 1429 1421 1425 1421 1417 1401 1394 1392 1386 1380 1376 1367 1361 1366 1376 1374 1365 1370 1371 1372 1377 1384 1374 1383 1389 1374 1368 1367 1364 1367 1373 1396 1403 1406 1414 1414 1411 1415 1421 1427 1416 1426 1428
1457 1448 1447 1433 1420 1417 1414 1405 1403 1395 1389 1387 1379 1382 1380 1371 1370 1372 1361 1368 1373 1369 1376 1379 1374 1374 1394 1382 1376 1362 1362 1375 1387 1392 1409 1407 1409 1412 1416 1418 1422 1423 1427 1433 1442
1461 1457 1449 1445 1432 1420 1413 1413 1409 1397 1397 1389 1387 1382 1379 1370 1367 1371 1368 1367 1369 1369 1376 1367 1367 1364 1380 1385 1388 1365 1358 1377 1390 1398 1409 1403 1415 1413 1413 1413 1416 1423 1426 1430 1438
1463 1459 1454 1445 1432 1422 1423 1419 1409 1401 1393 1389 1388 1380 1375 1376 1376 1374 1372 1372 1372 1369 1362 1354 1358 1363 1389 1385 1381 1377 1365 1373 1380 1383 1391 1391 1399 1405 1419 1422 1427 1418 1422 1430 1442
Wind_Speed
16 17 18 19 20 19 19 19 20 20 20 21 22 23 23 25 26 25 31 28 9 21 16 11 12 19 17 22 24 24 15 17 25 25 19 23 21 19 9 11 21 22 22 9 4
18 18 18 18 19 19 19 21 21 20 21 20 21 22 23 24 28 35 35 27 21 21 17 20 19 20 24 20 26 20 16 26 22 21 22 22 24 29 8 10 21 21 16 16 2
18 19 20 20 20 20 21 22 22 22 22 22 22 23 23 20 25 18 13 17 26 24 23 22 19 21 26 24 27 28 23 20 24 32 29 18 19 15 10 13 17 15 20 22 19
21 22 22 22 22 22 23 23 24 25 25 24 24 24 22 13 7 2 4 3 9 24 22 23 25 25 22 23 28 24 29 28 29 31 15 14 17 16 17 14 20 16 19 18 9
22 23 23 24 25 24 24 24 24 25 26 26 25 24 17 14 31 15 28 18 13 23 27 27 28 27 22 22 26 25 23 29 28 26 29 14 19 18 24 22 21 21 21 20 11
23 22 23 24 25 27 26 25 24 24 25 24 26 15 12 21 18 16 17 20 16 25 27 27 25 26 24 25 24 26 27 24 29 27 24 21 19 22 25 23 22 22 24 25 20
25 25 26 25 25 27 28 26 25 25 25 25 18 12 18 38 8 10 16 15 16 24 25 25 25 24 24 20 26 27 18 22 20 24 24 20 23 25 27 25 26 28 24 27 26
26 27 27 28 27 29 30 29 26 27 27 23 14 13 17 18 10 23 17 18 18 20 22 19 22 23 20 20 22 19 21 21 20 20 26 22 23 20 27 28 30 29 28 29 28
28 28 30 29 29 30 31 30 28 28 21 14 5 13 16 11 28 29 22 23 23 23 21 19 17 23 19 19 16 17 18 23 23 24 23 25 22 18 23 20 21 25 28 28 28
29 30 29 29 31 30 32 30 22 15 5 3 10 8 22 19 17 25 30 24 26 25 23 22 18 16 17 17 19 20 21 20 20 22 19 20 19 15 18 16 17 17 20 25 28
32 32 32 32 31 30 32 26 6 6 15 15 16 17 17 10 13 21 29 27 26 27 22 27 18 20 25 25 21 22 22 22 18 21 20 17 14 17 20 21 22 19 18 20 25
32 32 33 33 31 28 21 9 14 20 29 31 36 40 40 29 17 19 27 31 24 24 24 21 24 24 25 25 26 24 25 23 18 22 11 13 14 16 17 17 19 14 16 18 23
31 32 32 33 30 12 10 17 22 21 23 39 40 41 43 38 36 25 33 36 26 27 28 25 19 26 26 25 25 23 24 19 14 8 9 9 13 17 17 18 14 11 10 14 19
32 33 32 34 22 10 25 18 15 18 11 21 27 46 41 37 31 37 37 38 25 28 27 25 26 24 26 26 25 23 22 19 12 12 13 18 14 20 21 18 13 14 11 16 22
33 34 33 29 27 24 15 15 12 8 8 13 8 10 23 41 39 35 36 37 28 23 23 26 26 25 23 27 26 20 19 18 16 13 12 16 10 15 10 14 15 12 16 15 21
34 34 34 33 20 26 18 14 11 8 15 10 5 8 13 22 37 28 44 38 35 29 23 27 31 25 25 22 23 16 17 19 16 14 14 18 16 15 4 16 16 17 20 18 14
36 36 35 30 28 10 12 12 8 10 9 16 19 13 15 14 17 29 28 29 26 27 25 24 28 26 24 19 20 19 17 9 12 12 13 16 17 13 12 5 7 16 21 20 16
39 39 32 25 20 16 9 11 20 12 18 21 28 26 7 2 5 18 16 22 30 26 17 18 22 28 22 20 21 23 17 12 17 14 14 20 19 12 14 13 6 5 18 21 18
40 35 29 18 18 14 15 14 20 23 26 27 26 26 25 6 8 8 16 30 31 29 24 20 24 22 24 19 22 20 20 21 17 9 5 7 6 6 2 12 8 12 11 18 15
35 30 28 4 10 10 9 23 26 29 28 29 29 26 23 22 10 14 12 7 18 27 26 18 13 17 22 18 22 23 20 18 14 16 11 12 14 7 8 14 13 14 14 18 23
24 19 21 5 5 8 10 21 25 25 18 11 25 27 24 10 1 4 7 3 7 21 27 21 4 9 16 21 21 16 16 13 9 12 6 6 5 5 3 10 15 17 20 20 25
19 9 4 12 9 6 8 16 9 24 25 16 16 23 19 6 3 8 9 10 8 5 4 21 5 6 14 22 24 22 20 18 7 13 12 6 3 9 12 4 12 19 23 23 27
20 27 13 15 5 6 11 22 20 14 10 16 7 10 10 5 2 18 12 7 9 1 7 5 7 10 9 8 16 24 22 20 18 5 8 5 5 14 4 10 14 20 17 17 24
10 6 13 20 8 9 16 19 24 18 12 14 14 17 13 10 8 6 11 3 2 6 14 9 8 9 6 12 16 21 22 15 16 7 9 6 9 8 5 1 10 22 20 18 17
6 6 11 9 18 20 20 19 20 14 10 10 8 15 14 6 6 18 14 6 4 6 4 5 14 11 12 11 8 17 24 13 8 6 5 7 8 7 1 7 9 14 21 23 18
9 8 10 21 25 18 17 11 17 21 18 12 10 17 16 7 4 6 2 3 3 9 8 15 12 21 20 17 16 26 13 14 5 11 7 10 12 18 9 8 12 12 26 26 21
16 17 13 14 15 15 13 20 20 20 13 14 11 12 9 9 11 13 16 10 9 11 5 16 13 16 4 3 10 5 13 17 21 25 21 10 17 17 13 9 16 12 18 21 21
Wind_Direction
325 322 318 316 314 313 311 310 307 305 301 299 298 297 298 299 294 284 268 253 247 251 234 226 229 214 225 237 227 224 242 244 246 248 247 260 273 258 167 221 242 241 232 224 97
331 325 321 318 316 314 313 312 311 309 304 299 298 297 298 301 298 285 268 255 237 233 234 219 214 214 216 223 230 225 228 239 248 255 260 264 261 265 211 220 244 249 240 224 194
328 326 323 319 315 311 310 309 310 310 306 303 301 299 299 306 308 285 264 242 238 230 225 225 220 214 221 221 221 225 238 242 243 258 269 277 296 297 265 238 244 235 245 246 238
330 326 322 318 316 313 310 309 308 308 307 305 303 301 297 301 267 191 28 312 222 221 216 215 221 216 225 226 226 231 231 243 261 269 267 278 280 289 285 257 250 262 249 238 199
328 324 321 319 317 314 312 311 311 307 307 308 304 300 297 252 246 244 290 279 264 204 205 207 215 219 220 232 231 233 237 238 245 258 268 252 256 256 259 259 261 267 267 261 212
322 322 321 319 317 315 315 313 310 305 302 301 305 297 270 256 274 253 240 260 250 200 201 209 216 218 232 230 237 240 236 242 244 249 243 258 251 247 247 254 253 249 253 259 268
324 325 323 320 316 312 311 310 309 304 298 297 294 272 251 248 230 196 215 234 201 192 198 212 216 220 225 242 239 259 254 244 245 242 255 240 250 243 247 248 240 242 242 253 264
328 327 325 322 319 315 313 311 309 301 297 290 278 241 248 275 232 214 214 215 203 204 211 212 221 239 243 242 248 243 244 251 228 238 238 235 248 246 240 237 239 241 235 234 248
329 329 328 324 320 318 314 311 311 300 293 283 223 215 267 283 215 208 210 207 203 209 215 223 225 233 231 242 241 224 235 233 248 242 220 218 241 246 250 253 232 226 235 232 230
324 323 322 320 320 322 314 313 306 294 294 251 226 209 256 242 228 213 208 207 204 206 213 217 225 229 225 219 223 215 226 240 238 234 228 217 221 240 258 248 235 233 233 231 229
322 321 322 322 323 323 315 322 266 221 208 210 220 217 259 242 228 207 199 204 203 203 209 206 217 216 216 225 226 243 230 221 239 262 189 209 249 235 227 225 244 222 216 236 225
321 320 322 321 321 320 303 262 269 300 297 254 246 248 255 261 249 208 195 197 198 205 205 208 223 221 220 223 228 235 251 247 218 216 218 207 231 250 241 243 236 233 212 220 220
325 324 326 323 325 321 305 275 297 294 268 273 259 244 238 240 243 213 194 199 196 206 204 215 209 221 227 227 222 229 240 248 258 177 245 238 254 252 253 247 225 221 231 231 214
325 325 327 326 330 287 289 296 300 316 286 279 253 239 235 226 238 228 195 203 207 211 213 216 226 204 222 228 226 225 226 244 230 241 234 209 242 236 221 222 200 197 208 212 214
322 321 321 317 298 296 287 308 306 299 277 305 17 134 203 210 223 215 212 201 215 206 212 221 218 225 209 224 224 231 213 228 243 248 253 260 267 278 163 199 183 184 191 215 200
323 320 318 313 288 281 298 296 288 236 249 258 299 196 215 221 215 227 208 198 215 230 218 229 216 224 232 212 219 211 237 210 218 228 231 236 252 260 268 195 192 178 191 200 199
321 316 309 299 274 278 280 270 238 237 294 259 250 231 325 252 216 212 200 190 207 214 225 215 233 216 236 217 199 215 216 202 215 226 235 227 236 251 136 248 320 166 172 191 153
323 320 314 300 269 267 261 250 239 269 252 261 291 293 217 206 84 299 248 220 207 212 221 222 211 218 214 212 194 206 204 222 204 213 224 224 229 247 182 175 123 148 166 165 131
326 325 302 286 264 229 240 248 252 257 264 273 278 278 284 207 142 157 298 203 214 216 213 216 225 203 221 204 218 199 212 225 259 285 302 270 219 86 221 124 152 145 142 126 141
328 317 304 295 201 225 246 257 274 280 284 294 280 280 276 286 167 196 192 268 225 217 222 222 221 234 213 221 220 223 201 216 233 237 222 237 222 160 214 165 177 151 155 152 138
331 315 297 237 225 265 254 267 282 310 304 319 299 279 265 270 288 233 295 181 285 292 201 223 156 263 276 220 208 222 233 216 241 232 182 237 269 322 184 339 330 162 155 139 138
327 299 308 297 261 240 271 318 319 284 295 293 269 275 315 137 172 262 211 217 138 315 293 193 200 177 254 233 215 219 217 203 222 253 230 181 182 314 291 229 2 354 150 146 135
316 297 315 350 292 316 330 306 312 345 333 309 307 323 301 324 195 214 204 243 263 284 204 271 179 196 254 250 256 216 214 193 209 300 240 184 123 225 161 90 69 327 288 129 138
300 310 333 326 349 322 318 320 334 350 284 350 322 322 292 298 181 276 226 159 198 208 259 314 230 182 241 212 213 209 212 229 211 179 202 194 154 199 210 172 156 129 87 78 50
299 335 348 324 330 327 328 328 334 347 330 348 333 350 323 259 328 229 221 150 201 226 235 261 218 178 224 260 291 245 198 187 177 112 211 217 251 287 108 327 326 122 111 115 123
327 339 320 305 315 323 335 347 330 340 321 323 311 323 298 255 276 2 8 258 249 205 226 246 216 224 158 151 225 234 181 151 149 216 280 272 241 273 111 88 18 214 157 148 148
328 326 310 313 314 331 343 328 324 325 302 339 320 311 347 352 325 278 290 164 265 254 277 200 213 218 179 24 3 234 191 167 188 172 200 191 169 166 166 129 182 186 124 120 103